Main page
METAR-TAF:

METAR-TAF

Airports :

Sarakhs Airport

Sarakhs, Iran

latitude: 36-30-04N, longitude: 061-03-54E, elevation: 288 m

Current weather observation

The report was made 52 minutes ago, at 17:00 UTC
Calm wind
Temperature 10°C
Humidity 34%
Pressure 1025 hPa
Visibility 10 km or more
Scattered clouds at a height of 4000 ft
Broken clouds at a height of 19000 ft

METAR: OIMC 151700Z 00000KT 9999 SCT040 BKN190 10/M05 Q1025

Time: 21:22 (17:52 UTC)


TAF: missing

Weather observations and forecasts of more than 4000 airports (METAR and TAF reports).

The available stations are represented by yellow and red dots on the map.

Hover mouse over dot to see the name of the station.

Then click to see weather observations and forecasts.

To change the map : click on the green buttons with a black cross to zoom in, on the green button with a dash to zoom out, or on the green arrows for adjacent maps.


METAR-TAF: